QPF
0.03 0.05 0.04 0.02 0.02 0.02 0.01 0.02 0.02 0.00 0.00 0.00 0.01 0.01 0.01 0.00 0.01 0.01 0.00 0.01 0.01 0.01 0.01 0.00 0.00 0.00 0.00 0.00 0.00 0.00 0.00 0.00 0.00 0.00 0.00 0.00 0.00 0.00 0.00 0.00 0.00 0.01 0.00 0.00
0.04 0.05 0.02 0.01 0.01 0.01 0.01 0.01 0.01 0.00 0.00 0.01 0.01 0.01 0.01 0.01 0.01 0.01 0.01 0.01 0.00 0.00 0.01 0.01 0.02 0.01 0.00 0.00 0.00 0.00 0.00 0.00 0.00 0.00 0.00 0.00 0.00 0.00 0.00 0.00 0.00 0.00 0.00 0.00
0.04 0.03 0.01 0.00 0.00 0.01 0.01 0.01 0.01 0.00 0.00 0.01 0.01 0.01 0.01 0.00 0.00 0.00 0.01 0.01 0.01 0.00 0.00 0.01 0.01 0.02 0.01 0.01 0.00 0.00 0.00 0.00 0.00 0.00 0.00 0.00 0.00 0.00 0.00 0.00 0.00 0.00 0.00 0.00
0.04 0.01 0.01 0.01 0.01 0.02 0.02 0.01 0.01 0.00 0.00 0.00 0.01 0.02 0.01 0.00 0.00 0.00 0.00 0.00 0.01 0.01 0.00 0.00 0.01 0.02 0.01 0.00 0.00 0.00 0.00 0.00 0.00 0.00 0.00 0.00 0.00 0.00 0.00 0.00 0.00 0.00 0.00 0.00
0.04 0.01 0.01 0.02 0.01 0.03 0.02 0.01 0.01 0.01 0.01 0.01 0.01 0.01 0.01 0.00 0.00 0.00 0.00 0.00 0.00 0.00 0.01 0.01 0.00 0.00 0.00 0.00 0.00 0.00 0.00 0.00 0.00 0.00 0.00 0.00 0.00 0.00 0.00 0.00 0.00 0.00 0.00 0.00
0.01 0.01 0.02 0.02 0.01 0.01 0.01 0.01 0.01 0.01 0.02 0.04 0.01 0.01 0.01 0.01 0.00 0.00 0.00 0.00 0.00 0.00 0.00 0.00 0.00 0.00 0.00 0.00 0.00 0.00 0.00 0.00 0.00 0.00 0.00 0.00 0.00 0.00 0.00 0.00 0.00 0.00 0.00 0.00
0.02 0.01 0.01 0.01 0.00 0.00 0.00 0.01 0.03 0.05 0.08 0.06 0.01 0.00 0.00 0.00 0.00 0.00 0.00 0.00 0.00 0.00 0.00 0.00 0.00 0.00 0.00 0.00 0.00 0.00 0.00 0.00 0.00 0.00 0.00 0.00 0.00 0.00 0.00 0.00 0.00 0.00 0.00 0.00
0.03 0.03 0.00 0.00 0.01 0.01 0.01 0.02 0.06 0.09 0.07 0.03 0.00 0.00 0.00 0.00 0.00 0.00 0.00 0.00 0.00 0.00 0.00 0.00 0.00 0.00 0.00 0.00 0.00 0.00 0.00 0.00 0.00 0.00 0.00 0.00 0.00 0.00 0.00 0.00 0.00 0.00 0.00 0.00
0.02 0.02 0.00 0.01 0.01 0.01 0.01 0.02 0.04 0.04 0.02 0.01 0.00 0.00 0.00 0.00 0.00 0.00 0.00 0.00 0.00 0.00 0.00 0.00 0.00 0.00 0.00 0.00 0.00 0.00 0.00 0.00 0.00 0.00 0.00 0.00 0.00 0.00 0.00 0.00 0.00 0.00 0.00 0.00
0.02 0.01 0.00 0.00 0.00 0.01 0.01 0.01 0.02 0.02 0.02 0.01 0.00 0.00 0.00 0.00 0.00 0.00 0.00 0.00 0.00 0.00 0.00 0.00 0.00 0.00 0.00 0.00 0.00 0.00 0.00 0.00 0.00 0.00 0.00 0.00 0.00 0.00 0.00 0.00 0.00 0.00 0.00 0.00
0.01 0.00 0.00 0.00 0.00 0.00 0.00 0.00 0.02 0.01 0.00 0.01 0.00 0.00 0.00 0.00 0.00 0.00 0.00 0.00 0.00 0.00 0.00 0.00 0.00 0.00 0.00 0.00 0.00 0.00 0.00 0.00 0.00 0.00 0.00 0.00 0.00 0.00 0.00 0.00 0.00 0.00 0.00 0.00
0.00 0.00 0.00 0.00 0.00 0.00 0.00 0.00 0.00 0.00 0.00 0.00 0.00 0.00 0.00 0.00 0.00 0.00 0.00 0.00 0.00 0.00 0.00 0.00 0.00 0.00 0.00 0.00 0.00 0.00 0.00 0.00 0.00 0.00 0.00 0.00 0.00 0.00 0.00 0.00 0.00 0.00 0.00 0.00
0.00 0.00 0.00 0.00 0.00 0.00 0.00 0.00 0.00 0.00 0.00 0.00 0.00 0.00 0.00 0.00 0.00 0.00 0.00 0.00 0.00 0.00 0.00 0.00 0.00 0.00 0.00 0.00 0.00 0.00 0.00 0.00 0.00 0.00 0.00 0.00 0.00 0.00 0.00 0.00 0.00 0.00 0.00 0.00
0.00 0.00 0.00 0.00 0.00 0.00 0.00 0.00 0.00 0.00 0.00 0.00 0.00 0.00 0.00 0.00 0.00 0.00 0.00 0.00 0.00 0.00 0.00 0.00 0.00 0.00 0.00 0.00 0.00 0.00 0.00 0.00 0.00 0.00 0.00 0.00 0.00 0.00 0.00 0.00 0.00 0.00 0.00 0.00
0.00 0.00 0.00 0.00 0.00 0.00 0.00 0.00 0.00 0.00 0.00 0.00 0.00 0.00 0.00 0.00 0.00 0.00 0.00 0.00 0.00 0.00 0.00 0.00 0.00 0.00 0.00 0.00 0.00 0.00 0.00 0.00 0.00 0.00 0.00 0.00 0.00 0.00 0.00 0.00 0.00 0.00 0.00 0.00
0.00 0.00 0.00 0.00 0.00 0.00 0.00 0.00 0.00 0.00 0.00 0.00 0.00 0.00 0.00 0.00 0.00 0.00 0.00 0.00 0.00 0.00 0.00 0.00 0.00 0.00 0.00 0.00 0.00 0.00 0.00 0.00 0.00 0.00 0.00 0.00 0.00 0.00 0.00 0.00 0.00 0.00 0.00 0.00
0.00 0.00 0.00 0.00 0.00 0.00 0.00 0.00 0.00 0.00 0.00 0.00 0.00 0.00 0.00 0.00 0.00 0.00 0.00 0.00 0.00 0.00 0.00 0.00 0.00 0.00 0.00 0.00 0.00 0.00 0.00 0.00 0.00 0.00 0.00 0.00 0.00 0.00 0.00 0.00 0.00 0.00 0.00 0.00
0.00 0.00 0.00 0.00 0.00 0.00 0.00 0.00 0.00 0.00 0.00 0.00 0.00 0.00 0.00 0.00 0.00 0.00 0.00 0.00 0.00 0.00 0.00 0.00 0.00 0.00 0.00 0.00 0.00 0.00 0.00 0.00 0.00 0.00 0.00 0.00 0.00 0.00 0.00 0.00 0.00 0.00 0.00 0.00
0.00 0.00 0.00 0.00 0.00 0.00 0.00 0.00 0.00 0.00 0.00 0.00 0.00 0.00 0.00 0.00 0.00 0.00 0.00 0.00 0.00 0.00 0.00 0.00 0.00 0.00 0.00 0.00 0.00 0.00 0.00 0.00 0.00 0.00 0.00 0.00 0.00 0.00 0.00 0.00 0.00 0.00 0.00 0.00
0.00 0.00 0.00 0.00 0.00 0.00 0.00 0.00 0.00 0.00 0.00 0.00 0.00 0.00 0.00 0.00 0.00 0.00 0.00 0.00 0.00 0.00 0.00 0.00 0.00 0.00 0.00 0.00 0.00 0.00 0.00 0.00 0.00 0.00 0.00 0.00 0.00 0.00 0.00 0.00 0.00 0.00 0.00 0.01
0.00 0.00 0.00 0.00 0.00 0.00 0.00 0.00 0.00 0.00 0.00 0.00 0.00 0.00 0.00 0.00 0.00 0.00 0.00 0.00 0.00 0.00 0.00 0.00 0.00 0.00 0.00 0.00 0.00 0.00 0.00 0.00 0.00 0.00 0.00 0.00 0.00 0.00 0.00 0.00 0.00 0.00 0.01 0.01
0.00 0.00 0.00 0.00 0.00 0.00 0.00 0.00 0.00 0.00 0.00 0.00 0.00 0.00 0.00 0.00 0.00 0.00 0.00 0.00 0.00 0.00 0.00 0.00 0.00 0.00 0.00 0.00 0.00 0.00 0.00 0.00 0.00 0.00 0.00 0.00 0.00 0.00 0.00 0.00 0.00 0.00 0.01 0.01
0.00 0.00 0.00 0.00 0.00 0.00 0.00 0.00 0.00 0.00 0.00 0.00 0.00 0.00 0.00 0.00 0.00 0.00 0.00 0.00 0.00 0.00 0.00 0.00 0.00 0.00 0.00 0.00 0.00 0.00 0.00 0.00 0.00 0.00 0.00 0.00 0.00 0.00 0.00 0.00 0.00 0.00 0.00 0.01
0.00 0.00 0.00 0.00 0.00 0.00 0.00 0.00 0.00 0.00 0.00 0.00 0.00 0.00 0.00 0.00 0.00 0.00 0.00 0.00 0.00 0.00 0.00 0.00 0.00 0.00 0.00 0.00 0.00 0.00 0.00 0.00 0.00 0.00 0.00 0.00 0.00 0.00 0.00 0.00 0.00 0.00 0.00 0.01
0.00 0.00 0.00 0.00 0.00 0.00 0.00 0.00 0.00 0.00 0.00 0.00 0.00 0.00 0.00 0.00 0.00 0.00 0.00 0.00 0.00 0.00 0.00 0.00 0.00 0.00 0.00 0.00 0.00 0.00 0.00 0.00 0.00 0.00 0.00 0.00 0.00 0.00 0.00 0.00 0.00 0.00 0.00 0.00
0.00 0.00 0.00 0.00 0.00 0.00 0.00 0.00 0.00 0.00 0.00 0.00 0.00 0.00 0.00 0.00 0.00 0.00 0.00 0.00 0.00 0.00 0.00 0.00 0.00 0.00 0.00 0.00 0.00 0.00 0.00 0.00 0.00 0.00 0.00 0.00 0.00 0.00 0.00 0.00 0.00 0.00 0.00 0.00
MSLP
1010.13 1010.55 1010.85 1011.02 1011.11 1011.14 1011.16 1011.20 1011.27 1011.34 1011.39 1011.38 1011.31 1011.15 1010.92 1010.67 1010.42 1010.22 1010.10 1010.06 1010.09 1010.15 1010.20 1010.20 1010.15 1010.03 1009.88 1009.75 1009.69 1009.74 1009.94 1010.29 1010.76 1011.30 1011.86 1012.35 1012.74 1012.98 1013.09 1013.08 1012.99 1012.88 1012.78 1012.73
1010.46 1010.72 1010.87 1010.93 1010.95 1010.98 1011.06 1011.21 1011.41 1011.61 1011.78 1011.86 1011.82 1011.66 1011.39 1011.07 1010.75 1010.49 1010.33 1010.27 1010.30 1010.36 1010.42 1010.42 1010.33 1010.16 1009.93 1009.71 1009.56 1009.55 1009.71 1010.06 1010.57 1011.18 1011.81 1012.38 1012.83 1013.11 1013.22 1013.19 1013.06 1012.90 1012.77 1012.69
1010.63 1010.73 1010.74 1010.71 1010.70 1010.76 1010.93 1011.20 1011.56 1011.92 1012.22 1012.40 1012.41 1012.25 1011.95 1011.56 1011.17 1010.85 1010.64 1010.55 1010.57 1010.64 1010.71 1010.71 1010.60 1010.38 1010.09 1009.79 1009.56 1009.47 1009.59 1009.91 1010.43 1011.07 1011.74 1012.37 1012.86 1013.17 1013.29 1013.25 1013.10 1012.92 1012.76 1012.68
1010.69 1010.65 1010.55 1010.44 1010.41 1010.52 1010.79 1011.21 1011.73 1012.25 1012.69 1012.97 1013.03 1012.88 1012.54 1012.10 1011.64 1011.25 1010.99 1010.87 1010.88 1010.97 1011.05 1011.06 1010.95 1010.71 1010.38 1010.03 1009.73 1009.57 1009.62 1009.90 1010.39 1011.01 1011.69 1012.34 1012.85 1013.19 1013.32 1013.29 1013.14 1012.95 1012.78 1012.69
1010.73 1010.56 1010.36 1010.20 1010.17 1010.33 1010.70 1011.25 1011.92 1012.59 1013.15 1013.52 1013.63 1013.49 1013.13 1012.64 1012.12 1011.67 1011.36 1011.22 1011.23 1011.33 1011.44 1011.48 1011.39 1011.17 1010.83 1010.45 1010.09 1009.87 1009.85 1010.05 1010.47 1011.04 1011.69 1012.31 1012.82 1013.16 1013.31 1013.30 1013.17 1012.99 1012.83 1012.73
1010.80 1010.53 1010.24 1010.04 1010.00 1010.20 1010.65 1011.31 1012.09 1012.88 1013.55 1013.99 1014.15 1014.02 1013.65 1013.12 1012.56 1012.08 1011.74 1011.59 1011.60 1011.73 1011.88 1011.97 1011.93 1011.75 1011.42 1011.03 1010.64 1010.35 1010.24 1010.35 1010.66 1011.15 1011.71 1012.28 1012.76 1013.10 1013.26 1013.27 1013.17 1013.02 1012.88 1012.79
1010.92 1010.57 1010.21 1009.96 1009.91 1010.13 1010.62 1011.34 1012.20 1013.06 1013.80 1014.30 1014.51 1014.40 1014.04 1013.51 1012.94 1012.44 1012.10 1011.95 1011.99 1012.15 1012.35 1012.50 1012.53 1012.39 1012.10 1011.71 1011.30 1010.95 1010.75 1010.74 1010.94 1011.29 1011.75 1012.24 1012.66 1012.98 1013.15 1013.19 1013.13 1013.01 1012.90 1012.83
1011.03 1010.63 1010.23 1009.95 1009.87 1010.08 1010.57 1011.31 1012.19 1013.08 1013.86 1014.40 1014.64 1014.57 1014.25 1013.75 1013.21 1012.73 1012.42 1012.30 1012.37 1012.57 1012.82 1013.03 1013.12 1013.04 1012.79 1012.42 1011.98 1011.58 1011.29 1011.16 1011.22 1011.44 1011.77 1012.15 1012.51 1012.79 1012.97 1013.04 1013.02 1012.95 1012.88 1012.84
1011.06 1010.64 1010.22 1009.92 1009.82 1010.00 1010.46 1011.17 1012.02 1012.90 1013.67 1014.22 1014.50 1014.49 1014.23 1013.80 1013.33 1012.92 1012.66 1012.59 1012.70 1012.95 1013.25 1013.51 1013.65 1013.61 1013.40 1013.04 1012.60 1012.15 1011.78 1011.55 1011.47 1011.55 1011.75 1012.02 1012.30 1012.55 1012.72 1012.81 1012.84 1012.83 1012.81 1012.80
1010.91 1010.53 1010.13 1009.83 1009.72 1009.85 1010.26 1010.89 1011.67 1012.49 1013.23 1013.78 1014.10 1014.15 1013.98 1013.66 1013.29 1012.98 1012.81 1012.80 1012.97 1013.25 1013.58 1013.87 1014.04 1014.04 1013.86 1013.52 1013.08 1012.60 1012.17 1011.85 1011.66 1011.62 1011.70 1011.87 1012.07 1012.27 1012.43 1012.54 1012.61 1012.65 1012.68 1012.71
1010.54 1010.24 1009.91 1009.65 1009.53 1009.63 1009.96 1010.50 1011.18 1011.91 1012.58 1013.11 1013.45 1013.57 1013.51 1013.32 1013.09 1012.91 1012.84 1012.91 1013.13 1013.44 1013.79 1014.09 1014.28 1014.30 1014.14 1013.82 1013.39 1012.91 1012.45 1012.07 1011.80 1011.67 1011.65 1011.73 1011.86 1012.01 1012.15 1012.27 1012.37 1012.45 1012.52 1012.60
1010.00 1009.82 1009.59 1009.40 1009.31 1009.38 1009.63 1010.06 1010.61 1011.22 1011.80 1012.29 1012.64 1012.83 1012.87 1012.82 1012.75 1012.70 1012.75 1012.91 1013.18 1013.52 1013.87 1014.17 1014.36 1014.39 1014.26 1013.97 1013.57 1013.12 1012.66 1012.26 1011.96 1011.77 1011.68 1011.69 1011.75 1011.85 1011.96 1012.07 1012.17 1012.27 1012.38 1012.49
1009.38 1009.36 1009.26 1009.16 1009.11 1009.16 1009.33 1009.64 1010.05 1010.51 1010.98 1011.41 1011.75 1011.99 1012.14 1012.22 1012.30 1012.41 1012.58 1012.82 1013.14 1013.50 1013.86 1014.15 1014.33 1014.37 1014.27 1014.03 1013.68 1013.28 1012.87 1012.49 1012.19 1011.98 1011.85 1011.80 1011.80 1011.85 1011.91 1011.99 1012.07 1012.16 1012.27 1012.40
1008.84 1008.97 1009.02 1009.01 1009.00 1009.03 1009.12 1009.29 1009.55 1009.86 1010.20 1010.53 1010.85 1011.12 1011.36 1011.57 1011.80 1012.04 1012.34 1012.68 1013.05 1013.43 1013.78 1014.07 1014.25 1014.31 1014.24 1014.06 1013.79 1013.46 1013.13 1012.82 1012.55 1012.34 1012.20 1012.11 1012.06 1012.04 1012.04 1012.06 1012.09 1012.15 1012.23 1012.34
1008.50 1008.76 1008.93 1009.01 1009.03 1009.02 1009.02 1009.06 1009.15 1009.29 1009.49 1009.72 1009.99 1010.28 1010.59 1010.91 1011.27 1011.65 1012.07 1012.50 1012.93 1013.34 1013.71 1013.99 1014.18 1014.26 1014.24 1014.12 1013.94 1013.72 1013.48 1013.25 1013.04 1012.87 1012.72 1012.61 1012.51 1012.42 1012.35 1012.29 1012.25 1012.24 1012.27 1012.34
1008.42 1008.78 1009.02 1009.14 1009.17 1009.11 1009.01 1008.91 1008.83 1008.81 1008.86 1008.99 1009.20 1009.49 1009.85 1010.28 1010.75 1011.26 1011.79 1012.31 1012.81 1013.26 1013.64 1013.94 1014.15 1014.26 1014.29 1014.25 1014.16 1014.04 1013.90 1013.77 1013.63 1013.50 1013.37 1013.24 1013.10 1012.95 1012.80 1012.65 1012.53 1012.43 1012.38 1012.38
1008.58 1008.97 1009.23 1009.36 1009.35 1009.23 1009.03 1008.79 1008.56 1008.38 1008.29 1008.32 1008.47 1008.76 1009.17 1009.67 1010.26 1010.88 1011.52 1012.13 1012.70 1013.20 1013.61 1013.93 1014.16 1014.30 1014.38 1014.41 1014.41 1014.38 1014.35 1014.30 1014.24 1014.17 1014.06 1013.92 1013.75 1013.55 1013.33 1013.10 1012.89 1012.71 1012.57 1012.49
1008.85 1009.21 1009.44 1009.53 1009.47 1009.27 1008.96 1008.60 1008.24 1007.94 1007.74 1007.69 1007.80 1008.09 1008.53 1009.11 1009.79 1010.52 1011.25 1011.96 1012.60 1013.15 1013.59 1013.93 1014.19 1014.36 1014.49 1014.57 1014.64 1014.69 1014.74 1014.77 1014.78 1014.75 1014.68 1014.55 1014.37 1014.13 1013.86 1013.58 1013.30 1013.05 1012.83 1012.67
1009.04 1009.33 1009.50 1009.53 1009.39 1009.12 1008.73 1008.28 1007.83 1007.44 1007.17 1007.08 1007.17 1007.47 1007.95 1008.60 1009.35 1010.17 1010.99 1011.77 1012.47 1013.07 1013.55 1013.92 1014.19 1014.39 1014.54 1014.67 1014.78 1014.89 1015.00 1015.09 1015.16 1015.18 1015.14 1015.04 1014.87 1014.63 1014.35 1014.04 1013.72 1013.42 1013.15 1012.94
1009.00 1009.20 1009.29 1009.24 1009.05 1008.72 1008.29 1007.80 1007.31 1006.89 1006.60 1006.49 1006.59 1006.91 1007.43 1008.13 1008.95 1009.84 1010.72 1011.56 1012.32 1012.95 1013.46 1013.84 1014.13 1014.34 1014.51 1014.66 1014.80 1014.94 1015.09 1015.23 1015.34 1015.41 1015.41 1015.35 1015.21 1015.00 1014.74 1014.43 1014.12 1013.81 1013.52 1013.27
1008.64 1008.74 1008.76 1008.66 1008.44 1008.10 1007.67 1007.18 1006.71 1006.31 1006.04 1005.95 1006.08 1006.43 1006.98 1007.72 1008.59 1009.51 1010.44 1011.32 1012.11 1012.77 1013.29 1013.69 1013.99 1014.21 1014.38 1014.53 1014.69 1014.85 1015.02 1015.19 1015.33 1015.44 1015.50 1015.48 1015.40 1015.24 1015.02 1014.76 1014.47 1014.19 1013.91 1013.67
1007.96 1007.99 1007.96 1007.84 1007.63 1007.32 1006.93 1006.51 1006.10 1005.76 1005.55 1005.51 1005.67 1006.05 1006.63 1007.39 1008.26 1009.20 1010.15 1011.04 1011.84 1012.51 1013.05 1013.46 1013.76 1013.99 1014.17 1014.32 1014.48 1014.65 1014.84 1015.02 1015.20 1015.34 1015.44 1015.48 1015.45 1015.35 1015.20 1015.00 1014.77 1014.53 1014.29 1014.07
1007.08 1007.06 1007.00 1006.90 1006.73 1006.49 1006.20 1005.87 1005.56 1005.32 1005.18 1005.20 1005.40 1005.79 1006.38 1007.12 1007.98 1008.91 1009.83 1010.72 1011.51 1012.19 1012.73 1013.15 1013.47 1013.71 1013.90 1014.06 1014.23 1014.41 1014.60 1014.81 1015.00 1015.18 1015.31 1015.39 1015.42 1015.38 1015.28 1015.15 1014.98 1014.79 1014.60 1014.42
1006.13 1006.09 1006.04 1005.98 1005.88 1005.74 1005.56 1005.36 1005.17 1005.02 1004.96 1005.03 1005.25 1005.65 1006.21 1006.91 1007.73 1008.61 1009.50 1010.35 1011.12 1011.79 1012.35 1012.79 1013.12 1013.39 1013.60 1013.79 1013.97 1014.17 1014.37 1014.59 1014.80 1014.99 1015.15 1015.27 1015.33 1015.33 1015.28 1015.19 1015.08 1014.94 1014.80 1014.66
1005.29 1005.23 1005.21 1005.21 1005.19 1005.16 1005.09 1005.01 1004.93 1004.87 1004.88 1004.98 1005.21 1005.58 1006.09 1006.74 1007.49 1008.30 1009.13 1009.93 1010.68 1011.34 1011.90 1012.36 1012.73 1013.03 1013.29 1013.51 1013.73 1013.95 1014.17 1014.40 1014.62 1014.82 1014.99 1015.11 1015.19 1015.21 1015.19 1015.13 1015.04 1014.93 1014.82 1014.71
1004.66 1004.60 1004.60 1004.64 1004.71 1004.76 1004.80 1004.82 1004.82 1004.84 1004.89 1005.00 1005.22 1005.54 1005.99 1006.56 1007.22 1007.95 1008.71 1009.46 1010.17 1010.82 1011.40 1011.88 1012.29 1012.64 1012.94 1013.21 1013.47 1013.72 1013.97 1014.21 1014.44 1014.64 1014.80 1014.92 1015.00 1015.02 1014.99 1014.93 1014.84 1014.74 1014.64 1014.54
Thickness
5703 5699 5697 5709 5720 5724 5730 5732 5734 5746 5762 5756 5749 5748 5757 5768 5769 5768 5769 5769 5769 5771 5776 5777 5774 5773 5769 5766 5763 5759 5754 5750 5745 5740 5736 5732 5729 5728 5727 5724 5721 5718 5716 5713
5695 5695 5713 5725 5729 5730 5733 5733 5738 5749 5762 5755 5748 5749 5758 5765 5766 5768 5769 5769 5770 5770 5771 5771 5771 5769 5766 5763 5761 5759 5755 5750 5745 5740 5737 5734 5730 5728 5725 5723 5720 5717 5714 5711
5695 5708 5724 5725 5725 5725 5731 5736 5739 5744 5754 5756 5748 5739 5749 5761 5767 5769 5770 5770 5771 5771 5767 5767 5767 5764 5763 5761 5759 5758 5754 5750 5745 5741 5737 5733 5728 5725 5722 5720 5718 5717 5713 5710
5702 5719 5722 5722 5725 5730 5726 5746 5748 5748 5741 5735 5743 5716 5736 5751 5754 5759 5762 5765 5766 5768 5768 5766 5764 5762 5762 5761 5761 5759 5754 5750 5745 5741 5734 5729 5723 5719 5719 5718 5717 5716 5713 5710
5703 5719 5720 5720 5731 5734 5736 5755 5752 5750 5744 5737 5741 5727 5729 5746 5742 5749 5756 5760 5762 5765 5764 5762 5762 5761 5762 5761 5759 5756 5752 5748 5744 5739 5734 5728 5724 5722 5721 5719 5717 5715 5713 5710
5717 5733 5732 5733 5745 5748 5751 5751 5749 5748 5740 5716 5734 5727 5720 5738 5743 5748 5754 5757 5759 5761 5761 5760 5761 5759 5758 5757 5755 5752 5748 5744 5741 5737 5734 5729 5725 5722 5719 5717 5715 5713 5712 5710
5714 5727 5738 5746 5739 5746 5748 5735 5717 5710 5704 5711 5742 5733 5727 5748 5756 5755 5752 5754 5756 5757 5756 5754 5753 5752 5751 5751 5749 5748 5744 5740 5738 5736 5733 5730 5727 5724 5721 5718 5715 5712 5710 5708
5708 5711 5736 5746 5744 5740 5742 5734 5709 5696 5699 5719 5742 5731 5735 5755 5759 5759 5757 5754 5753 5752 5751 5750 5750 5749 5748 5748 5746 5745 5742 5739 5737 5734 5732 5731 5729 5725 5723 5720 5717 5714 5712 5710
5714 5718 5745 5753 5755 5751 5739 5730 5731 5718 5723 5720 5732 5732 5740 5752 5752 5752 5750 5748 5746 5747 5747 5747 5747 5748 5747 5746 5745 5743 5741 5738 5736 5734 5732 5730 5729 5726 5723 5721 5719 5716 5715 5713
5731 5724 5740 5751 5755 5755 5750 5744 5732 5721 5714 5712 5724 5724 5726 5736 5739 5743 5743 5741 5742 5744 5745 5745 5745 5745 5745 5745 5744 5743 5741 5738 5736 5734 5732 5731 5728 5726 5724 5721 5718 5716 5715 5713
5744 5731 5735 5744 5742 5745 5748 5744 5744 5740 5742 5727 5714 5723 5754 5747 5745 5742 5741 5741 5740 5740 5740 5741 5742 5743 5743 5742 5741 5740 5738 5736 5734 5733 5731 5729 5727 5726 5724 5720 5718 5717 5715 5714
5750 5742 5734 5744 5762 5768 5762 5758 5753 5736 5741 5745 5729 5721 5760 5755 5751 5746 5742 5740 5740 5739 5739 5739 5739 5739 5739 5738 5737 5736 5736 5733 5732 5731 5730 5728 5727 5724 5722 5720 5719 5717 5715 5714
5750 5740 5727 5729 5741 5755 5755 5759 5760 5757 5752 5744 5729 5719 5753 5751 5747 5745 5741 5739 5737 5737 5736 5736 5735 5734 5734 5734 5735 5733 5733 5731 5730 5729 5726 5725 5724 5722 5720 5719 5718 5717 5715 5713
5752 5743 5735 5725 5737 5750 5748 5752 5756 5753 5742 5743 5741 5728 5740 5742 5740 5740 5739 5738 5736 5735 5733 5732 5730 5730 5731 5731 5732 5730 5729 5729 5728 5725 5722 5720 5719 5719 5718 5717 5716 5715 5713 5712
5755 5743 5748 5752 5758 5759 5755 5753 5753 5750 5751 5746 5746 5740 5743 5745 5743 5742 5740 5738 5734 5732 5730 5728 5727 5727 5727 5726 5727 5727 5725 5725 5724 5721 5718 5716 5716 5715 5713 5712 5711 5710 5709 5709
5754 5746 5749 5748 5756 5755 5751 5755 5755 5754 5755 5753 5750 5747 5758 5756 5750 5743 5740 5736 5731 5728 5727 5726 5726 5725 5724 5723 5723 5722 5721 5721 5720 5716 5713 5711 5710 5709 5707 5707 5706 5705 5704 5703
5752 5745 5738 5737 5753 5748 5737 5755 5756 5755 5759 5756 5746 5750 5757 5750 5745 5742 5739 5735 5731 5728 5725 5723 5722 5722 5722 5722 5721 5719 5718 5717 5714 5710 5707 5705 5704 5702 5701 5701 5699 5698 5697 5697
5749 5745 5741 5736 5738 5719 5751 5775 5771 5762 5762 5764 5761 5758 5755 5750 5747 5745 5741 5735 5730 5727 5723 5721 5720 5719 5719 5719 5718 5716 5715 5711 5707 5704 5701 5699 5697 5695 5694 5693 5691 5691 5690 5690
5751 5741 5734 5732 5727 5737 5753 5766 5767 5756 5753 5766 5761 5757 5753 5750 5741 5736 5740 5737 5730 5726 5723 5720 5718 5717 5716 5714 5713 5711 5708 5704 5700 5696 5693 5692 5690 5688 5686 5684 5683 5683 5682 5682
5743 5741 5731 5730 5720 5721 5749 5769 5775 5760 5742 5765 5764 5754 5749 5741 5722 5726 5736 5733 5728 5724 5720 5717 5715 5713 5709 5707 5706 5703 5699 5695 5691 5688 5686 5685 5683 5680 5678 5676 5675 5674 5673 5673
5723 5724 5721 5720 5721 5738 5756 5766 5763 5733 5741 5766 5764 5756 5748 5739 5737 5739 5735 5729 5724 5719 5716 5713 5709 5704 5702 5701 5699 5694 5691 5687 5684 5682 5679 5677 5675 5673 5671 5669 5666 5664 5663 5662
5727 5723 5722 5721 5714 5728 5756 5756 5748 5748 5762 5763 5759 5754 5747 5742 5740 5736 5729 5722 5717 5712 5709 5706 5701 5698 5696 5694 5690 5686 5682 5680 5678 5675 5672 5669 5667 5665 5664 5659 5656 5654 5651 5649
5742 5742 5740 5737 5734 5750 5758 5756 5758 5760 5756 5755 5752 5749 5743 5735 5730 5726 5720 5715 5711 5707 5703 5700 5696 5692 5690 5687 5683 5678 5676 5674 5670 5667 5663 5661 5659 5656 5653 5649 5645 5641 5638 5634
5747 5751 5742 5739 5739 5746 5749 5751 5752 5752 5750 5749 5747 5742 5737 5728 5723 5718 5713 5709 5705 5701 5697 5693 5689 5685 5682 5680 5677 5673 5670 5666 5662 5658 5654 5652 5649 5645 5642 5638 5634 5628 5624 5620
5737 5737 5732 5728 5735 5738 5739 5742 5743 5742 5742 5740 5737 5735 5729 5722 5716 5711 5707 5702 5698 5695 5691 5687 5682 5678 5675 5673 5669 5666 5663 5658 5652 5648 5645 5642 5638 5634 5630 5626 5621 5617 5613 5608
5730 5727 5719 5718 5732 5730 5730 5736 5737 5732 5730 5729 5725 5722 5721 5716 5710 5705 5700 5696 5691 5687 5683 5679 5675 5671 5668 5665 5661 5658 5654 5649 5643 5638 5634 5630 5626 5622 5617 5613 5610 5607 5602 5599